Weather in Sivashovka

Ukraine / Kherson District     46°15′15″N   34°25′51″E
temp.,
°C
wind,
m/s
gust,
m/s
humid.,
%
clouds,
%
prec.,
mm/h
press.,
hPa
HPBL,
m
8 may, sat
sat800:00+14sse4680100 0.0 1013137
03:00+13se347888 0.0 101252
06:00+13sse3571100 0.0 101091
09:00+17sse3351100 0.0 1010256
12:00+22s454014 0.0 1009667
15:00+22wsw7746100 0.0 1009913
18:00+16nnw91168100 0.0 1010739
21:00+12nnw71274100 1.1 1013927
9 may, sun
sun900:00+11nnw81268100 0.6 1015876
03:00+9nnw71171100 0.6 1017897
06:00+7nw61177100 0.0 1019728
09:00+11nnw796112 0.0 10211325
12:00+14nnw89395 0.0 10222048
15:00+16nnw8932100 0.0 10232958
18:00+15nnw683648 0.0 10242258
21:00+12nnw484512 0.0 1026188
10 may, mon
mon1000:00+8nnw47604 0.0 1027121
03:00+7nnw466834 0.0 102792
06:00+6n36742 0.0 1028121
09:00+13n57450 0.0 10281592
12:00+15n563413 0.0 10262314
15:00+17n663195 0.0 10252637
18:00+16nnw6735100 0.0 10242272
21:00+11nw4851100 0.0 1023141
11 may, tue
tue1100:00+9nw4105863 0.0 1022191
03:00+9nw6126899 0.0 1020277
06:00+10nw71260100 0.0 1018667
09:00+9nnw61083100 0.3 1018490
12:00+12nnw4774100 0.1 1017662
15:00+11nnw4781100 0.5 1016569
18:00+11n3786100 1.3 1016493
21:00+8ne478284 1.3 1016146
12 may, wed
wed1200:00+7n22845 0.0 101416
03:00+6nnw22885 0.0 101321
06:00+6nne11885 0.0 101312
09:00+11s2365100 0.0 1013607
12:00+14s4456100 0.0 1014999
15:00+16sse445498 0.0 10131411
18:00+15ese4473100 0.1 1013555
21:00+13ese238492 0.1 101335